KSUSKCOU

Guest
Details From KSUS - Spirit Of St Louis
To KCOU - Columbia Rgnl
Flight Number -
Tags Generated
Created
Modified
Stats Distance 74 nm / 136 km
Max Altitude 0 ft / 0 m
Waypoints 2
Social Downloads 0
Likes 0
Share VATSIM

Download

Looking for another format? Having issues loading an existing format? Contact us
Advertisement - Login to hide

Notes

Generated

Route

KSUS KCOU

ID Type Via Altitude Latitude Longitude Leg Dist Tot Dist Heading (true) Name
O KSUS APT - 0 ft / 0 m 38.66414˚ -90.66828˚ - 0 nm - -
O KCOU APT - 0 ft / 0 m 38.82886˚ -92.22501˚ 73 nm 73 nm 278° / 277° -

Altitude Profile

Advertisement - Login to hide

KSUS

Details ICAO KSUS (SUS)
Name SPIRIT OF ST LOUIS
Region United States
Timezone America/Chicago (UTC-5.0)
Stats Elevation 463 ft / 141 m (AMSL)
Location 38.662689° -90.653317°
Runways 2
Magnetic Variation 1.236° W

METAR

KSUS 272154Z 13007KT 10SM SCT045TCU SCT150 BKN250 31/21 A2984 RMK AO2 LTG DSNT S-NW RAB11E23 TSE50 SLP097 TCU NW AND S MOV SW P0000 T03110211

Decode

TAF

TAF KSUS 271720Z 2718/2818 VRB03KT P6SM FEW040 FM271900 VRB03KT P6SM VCTS SCT050CB FM280100 VRB03KT P6SM FEW250

Decode

Departure Runways

ID Width Length Bearing (true) Bearing (mag) Surface Threshold Offset Overrun Length
08L 75 ft / 23 m 4,990 ft / 1,521 m 78.04° 79.28° Asphalt 0 ft / 0 m 0 ft / 0 m
08R 150 ft / 46 m 7,470 ft / 2,277 m 78.02° 79.26° Concrete 0 ft / 0 m 0 ft / 0 m
26L 150 ft / 46 m 7,470 ft / 2,277 m 258.03° 259.27° Concrete 481 ft / 147 m 0 ft / 0 m
26R 75 ft / 23 m 4,990 ft / 1,521 m 258.05° 259.29° Asphalt 0 ft / 0 m 0 ft / 0 m

KCOU

Details ICAO KCOU (COU)
Name Columbia Rgnl
Region United States
Timezone America/Chicago (UTC-5.0)
Stats Elevation 889 ft / 271 m (AMSL)
Location 38.819040° -92.219575°
Runways 2
Magnetic Variation 0.085° W

METAR

KCOU 272154Z COR 25008KT 10SM FEW080 33/20 A2987 RMK AO2 SLP104 T03330200 $

Decode

TAF

KCOU 272100Z 2721/2818 VRB04KT P6SM VCTS FEW060CB FM280000 VRB04KT P6SM FEW250

Decode

Destination Runways

ID Width Length Bearing (true) Bearing (mag) Surface Threshold Offset Overrun Length
02 150 ft / 46 m 6,510 ft / 1,984 m 21.36° 21.44° Concrete 0 ft / 0 m 0 ft / 0 m
13 75 ft / 23 m 4,399 ft / 1,341 m 135.54° 135.62° Asphalt 0 ft / 0 m 0 ft / 0 m
20 150 ft / 46 m 6,510 ft / 1,984 m 201.36° 201.44° Concrete 0 ft / 0 m 0 ft / 0 m
31 75 ft / 23 m 4,399 ft / 1,341 m 315.54° 315.62° Asphalt 0 ft / 0 m 0 ft / 0 m

Approach Navaids

Runway Type Ident Frequency Range Bearing (true) Bearing (mag) Slope Elevation
02 Localiser ICOU 110.70 MHz 18 nm / 33 km 21.36° 21.44° - 880 ft / 268 m (AMSL)
02 Glidescope ICOU 110.70 MHz 10 nm / 19 km 21.36° 21.44° 2.83° 883 ft / 269 m (AMSL)
02 DME ICOU 110.70 MHz 18 nm / 33 km - - - 889 ft / 271 m (AMSL)

Popular Alternatives